Location: Brno
(49.2000°N, 16.6330°E)
Time: 18:13:15
(UTC+02:00)

Transit 4A - Pass Details

Date: 02 August 2021
Orbit: 871 x 974 km, 66.8° (Epoch: 16 September)

Event Time Altitude Azimuth Distance (km) Brightness Sun altitude
Rises 00:40:12 0° 205° (SSW) 3,488 - -22.9°
Reaches altitude 10° 00:42:42 10° 203° (SSW) 2,541 - -22.9°
Exits shadow 00:47:10 52° 182° (S) 1,083 7.8 -23.0°
Maximum altitude 00:48:31 70° 121° (ESE) 931 7.7 -23.0°
Drops below altitude 10° 00:54:19 10° 39° (NE) 2,528 10.8 -23.0°
Sets 00:56:48 0° 37° (NE) 3,469 11.7 -23.0°
